Time,TemperatureF,DewpointF,PressureIn,WindDirection,WindDirectionDegrees,WindSpeedMPH,WindSpeedGustMPH,Humidity,HourlyPrecipIn,Conditions,Clouds,dailyrainin,SoftwareType,DateUTC
2013-09-30 00:05:00,50.3,49.0,30.06,ENE,63,0.0,0.0,96,0.00,,,0.00,weatherlink.com 1.10,2013-09-30 04:05:00,
2013-09-30 00:20:00,50.4,50.0,30.06,ENE,63,0.0,0.0,97,0.00,,,0.00,weatherlink.com 1.10,2013-09-30 04:20:00,
2013-09-30 00:35:00,50.4,50.0,30.06,ENE,63,0.0,0.0,97,0.00,,,0.00,weatherlink.com 1.10,2013-09-30 04:35:00,
2013-09-30 00:50:00,50.5,50.0,30.06,ENE,63,0.0,0.0,97,0.00,,,0.00,weatherlink.com 1.10,2013-09-30 04:50:00,
2013-09-30 01:05:00,50.2,49.0,30.06,ENE,63,0.0,0.0,96,0.00,,,0.00,weatherlink.com 1.10,2013-09-30 05:05:00,
2013-09-30 01:20:00,49.9,49.0,30.06,ENE,63,0.0,0.0,96,0.00,,,0.00,weatherlink.com 1.10,2013-09-30 05:20:00,
2013-09-30 01:35:00,49.4,48.0,30.06,ENE,63,0.0,0.0,96,0.00,,,0.00,weatherlink.com 1.10,2013-09-30 05:35:00,
2013-09-30 01:50:00,49.5,49.0,30.06,ENE,63,0.0,0.0,97,0.00,,,0.00,weatherlink.com 1.10,2013-09-30 05:50:00,
2013-09-30 02:05:00,49.9,49.0,30.06,ENE,63,0.0,1.0,97,0.00,,,0.00,weatherlink.com 1.10,2013-09-30 06:05:00,
2013-09-30 02:20:00,49.7,49.0,30.06,ENE,71,0.0,1.0,96,0.00,,,0.00,weatherlink.com 1.10,2013-09-30 06:20:00,
2013-09-30 02:35:00,48.7,48.0,30.05,ENE,71,0.0,1.0,96,0.00,,,0.00,weatherlink.com 1.10,2013-09-30 06:35:00,
2013-09-30 02:50:00,49.0,48.0,30.05,ENE,71,0.0,0.0,97,0.00,,,0.00,weatherlink.com 1.10,2013-09-30 06:50:00,
2013-09-30 03:05:00,48.1,47.0,30.05,ENE,71,1.0,1.0,96,0.00,,,0.00,weatherlink.com 1.10,2013-09-30 07:05:00,
2013-09-30 03:20:00,47.9,47.0,30.05,ENE,71,0.0,1.0,97,0.00,,,0.00,weatherlink.com 1.10,2013-09-30 07:20:00,
2013-09-30 03:35:00,48.0,47.0,30.05,ENE,71,0.0,2.0,97,0.00,,,0.00,weatherlink.com 1.10,2013-09-30 07:35:00,
2013-09-30 03:50:00,47.4,46.0,30.05,ENE,71,0.0,0.0,96,0.00,,,0.00,weatherlink.com 1.10,2013-09-30 07:50:00,
2013-09-30 04:05:00,47.5,47.0,30.05,ENE,71,0.0,0.0,97,0.00,,,0.00,weatherlink.com 1.10,2013-09-30 08:05:00,
2013-09-30 04:20:00,47.4,47.0,30.06,ENE,71,0.0,0.0,97,0.01,,,0.01,weatherlink.com 1.10,2013-09-30 08:20:00,
2013-09-30 04:35:00,47.8,47.0,30.06,ENE,71,0.0,0.0,97,0.01,,,0.01,weatherlink.com 1.10,2013-09-30 08:35:00,
2013-09-30 04:50:00,47.8,47.0,30.06,ENE,71,0.0,1.0,97,0.01,,,0.01,weatherlink.com 1.10,2013-09-30 08:50:00,
2013-09-30 05:05:00,47.2,46.0,30.06,ENE,71,0.0,2.0,97,0.01,,,0.01,weatherlink.com 1.10,2013-09-30 09:05:00,
2013-09-30 05:20:00,47.6,47.0,30.06,ENE,71,0.0,1.0,98,0.00,,,0.01,weatherlink.com 1.10,2013-09-30 09:20:00,
2013-09-30 05:35:00,47.6,47.0,30.06,ENE,71,0.0,0.0,97,0.00,,,0.01,weatherlink.com 1.10,2013-09-30 09:35:00,
2013-09-30 05:50:00,48.2,48.0,30.06,ENE,71,0.0,0.0,98,0.00,,,0.01,weatherlink.com 1.10,2013-09-30 09:50:00,
2013-09-30 06:05:00,47.4,47.0,30.06,ENE,71,0.0,1.0,97,0.00,,,0.01,weatherlink.com 1.10,2013-09-30 10:05:00,
2013-09-30 06:20:00,47.3,47.0,30.06,ENE,71,0.0,0.0,97,0.00,,,0.01,weatherlink.com 1.10,2013-09-30 10:20:00,
2013-09-30 06:35:00,47.4,47.0,30.07,ENE,71,0.0,0.0,97,0.00,,,0.01,weatherlink.com 1.10,2013-09-30 10:35:00,
2013-09-30 06:50:00,47.8,47.0,30.07,ENE,71,0.0,0.0,98,0.00,,,0.01,weatherlink.com 1.10,2013-09-30 10:50:00,
2013-09-30 07:05:00,47.7,47.0,30.07,ENE,71,0.0,0.0,97,0.00,,,0.01,weatherlink.com 1.10,2013-09-30 11:05:00,
2013-09-30 07:20:00,47.0,46.0,30.08,ENE,71,0.0,0.0,97,0.00,,,0.01,weatherlink.com 1.10,2013-09-30 11:20:00,
2013-09-30 07:35:00,47.8,47.0,30.08,ENE,71,0.0,0.0,98,0.00,,,0.01,weatherlink.com 1.10,2013-09-30 11:35:00,
2013-09-30 07:51:00,48.7,48.0,30.08,ENE,71,0.0,1.0,98,0.00,,,0.01,weatherlink.com 1.10,2013-09-30 11:51:00,
2013-09-30 08:06:00,50.6,50.0,30.08,ENE,71,0.0,1.0,98,0.00,,,0.01,weatherlink.com 1.10,2013-09-30 12:06:00,
2013-09-30 08:21:00,51.2,51.0,30.08,ENE,71,0.0,2.0,98,0.00,,,0.01,weatherlink.com 1.10,2013-09-30 12:21:00,
2013-09-30 08:36:00,53.2,53.0,30.09,NE,40,0.0,1.0,99,0.00,,,0.01,weatherlink.com 1.10,2013-09-30 12:36:00,
2013-09-30 08:51:00,55.3,55.0,30.08,East,93,0.0,1.0,98,0.00,,,0.01,weatherlink.com 1.10,2013-09-30 12:51:00,
2013-09-30 09:06:00,56.6,56.0,30.09,East,100,0.0,1.0,98,0.00,,,0.01,weatherlink.com 1.10,2013-09-30 13:06:00,
2013-09-30 09:21:00,57.9,56.0,30.09,East,100,0.0,2.0,93,0.00,,,0.01,weatherlink.com 1.10,2013-09-30 13:21:00,
2013-09-30 09:36:00,59.5,57.0,30.08,East,96,0.0,3.0,90,0.00,,,0.01,weatherlink.com 1.10,2013-09-30 13:36:00,
2013-09-30 09:51:00,61.4,57.0,30.08,East,96,0.0,2.0,86,0.00,,,0.01,weatherlink.com 1.10,2013-09-30 13:51:00,
2013-09-30 10:06:00,63.2,57.0,30.07,ESE,104,0.0,3.0,79,0.00,,,0.01,weatherlink.com 1.10,2013-09-30 14:06:00,
2013-09-30 10:21:00,64.1,58.0,30.08,SE,134,3.0,4.0,80,0.00,,,0.01,weatherlink.com 1.10,2013-09-30 14:21:00,
2013-09-30 10:36:00,64.5,58.0,30.08,East,88,3.0,7.0,78,0.00,,,0.01,weatherlink.com 1.10,2013-09-30 14:36:00,
2013-09-30 10:51:00,65.0,58.0,30.08,SSW,192,5.0,6.0,79,0.00,,,0.01,weatherlink.com 1.10,2013-09-30 14:51:00,
2013-09-30 11:06:00,65.8,59.0,30.07,SSE,167,5.0,6.0,79,0.00,,,0.01,weatherlink.com 1.10,2013-09-30 15:06:00,
2013-09-30 11:21:00,66.5,58.0,30.07,SE,128,3.0,9.0,75,0.00,,,0.01,weatherlink.com 1.10,2013-09-30 15:21:00,
2013-09-30 11:36:00,67.2,59.0,30.07,East,80,5.0,7.0,75,0.00,,,0.01,weatherlink.com 1.10,2013-09-30 15:36:00,
2013-09-30 11:52:00,67.9,59.0,30.06,East,101,2.0,7.0,72,0.00,,,0.01,weatherlink.com 1.10,2013-09-30 15:52:00,
2013-09-30 12:07:00,68.7,58.0,30.06,SE,124,3.0,8.0,69,0.00,,,0.01,weatherlink.com 1.10,2013-09-30 16:07:00,
2013-09-30 12:22:00,69.3,59.0,30.06,SSE,161,0.0,7.0,69,0.00,,,0.01,weatherlink.com 1.10,2013-09-30 16:22:00,
2013-09-30 12:37:00,69.6,58.0,30.05,South,178,4.0,7.0,67,0.00,,,0.01,weatherlink.com 1.10,2013-09-30 16:37:00,
2013-09-30 12:52:00,70.1,59.0,30.05,East,80,2.0,7.0,68,0.00,,,0.01,weatherlink.com 1.10,2013-09-30 16:52:00,
2013-09-30 13:07:00,70.3,58.0,30.04,South,181,1.0,7.0,65,0.00,,,0.01,weatherlink.com 1.10,2013-09-30 17:07:00,
2013-09-30 13:22:00,70.6,58.0,30.04,South,182,4.0,7.0,65,0.00,,,0.01,weatherlink.com 1.10,2013-09-30 17:22:00,
2013-09-30 13:37:00,71.6,59.0,30.03,SSW,196,3.0,6.0,65,0.00,,,0.01,weatherlink.com 1.10,2013-09-30 17:37:00,
2013-09-30 13:52:00,71.6,59.0,30.02,SSW,202,3.0,7.0,64,0.00,,,0.01,weatherlink.com 1.10,2013-09-30 17:52:00,
2013-09-30 14:07:00,72.2,59.0,30.02,SSE,159,5.0,7.0,63,0.00,,,0.01,weatherlink.com 1.10,2013-09-30 18:07:00,
2013-09-30 14:22:00,72.6,59.0,30.01,SSE,161,4.0,7.0,62,0.00,,,0.01,weatherlink.com 1.10,2013-09-30 18:22:00,
2013-09-30 14:37:00,72.9,59.0,30.00,East,98,6.0,8.0,61,0.00,,,0.01,weatherlink.com 1.10,2013-09-30 18:37:00,
2013-09-30 14:52:00,73.2,58.0,30.00,East,86,2.0,6.0,60,0.00,,,0.01,weatherlink.com 1.10,2013-09-30 18:52:00,
2013-09-30 15:07:00,73.2,59.0,29.99,SW,217,3.0,7.0,61,0.00,,,0.01,weatherlink.com 1.10,2013-09-30 19:07:00,
2013-09-30 15:22:00,73.7,58.0,29.99,SE,137,2.0,7.0,59,0.00,,,0.01,weatherlink.com 1.10,2013-09-30 19:22:00,
2013-09-30 15:37:00,73.3,57.0,29.98,ESE,117,1.0,4.0,58,0.00,,,0.01,weatherlink.com 1.10,2013-09-30 19:37:00,
2013-09-30 15:52:00,74.5,59.0,29.98,ENE,57,0.0,1.0,59,0.00,,,0.01,weatherlink.com 1.10,2013-09-30 19:52:00,
2013-09-30 16:07:00,74.4,59.0,29.98,SE,144,0.0,5.0,59,0.00,,,0.01,weatherlink.com 1.10,2013-09-30 20:07:00,
2013-09-30 16:22:00,74.2,59.0,29.98,SSE,159,2.0,7.0,60,0.00,,,0.01,weatherlink.com 1.10,2013-09-30 20:22:00,
2013-09-30 16:37:00,74.3,59.0,29.97,SSE,168,2.0,3.0,59,0.00,,,0.01,weatherlink.com 1.10,2013-09-30 20:37:00,
2013-09-30 16:52:00,74.1,60.0,29.98,WSW,253,0.0,4.0,61,0.00,,,0.01,weatherlink.com 1.10,2013-09-30 20:52:00,
2013-09-30 17:07:00,74.1,58.0,29.98,East,88,0.0,4.0,58,0.00,,,0.01,weatherlink.com 1.10,2013-09-30 21:07:00,
2013-09-30 17:22:00,73.9,59.0,29.98,SE,136,1.0,5.0,60,0.00,,,0.01,weatherlink.com 1.10,2013-09-30 21:22:00,
2013-09-30 17:37:00,73.8,59.0,29.98,South,173,0.0,4.0,61,0.00,,,0.01,weatherlink.com 1.10,2013-09-30 21:37:00,
2013-09-30 17:52:00,72.9,59.0,29.99,SSE,167,2.0,3.0,62,0.00,,,0.01,weatherlink.com 1.10,2013-09-30 21:52:00,
2013-09-30 18:07:00,71.8,59.0,29.99,SSE,167,2.0,3.0,65,0.00,,,0.01,weatherlink.com 1.10,2013-09-30 22:07:00,
2013-09-30 18:22:00,70.3,61.0,29.99,SSE,167,1.0,1.0,73,0.00,,,0.01,weatherlink.com 1.10,2013-09-30 22:22:00,
2013-09-30 18:37:00,67.1,60.0,29.99,SSE,167,0.0,2.0,79,0.00,,,0.01,weatherlink.com 1.10,2013-09-30 22:37:00,
2013-09-30 18:52:00,64.9,60.0,30.00,SSE,167,0.0,1.0,83,0.00,,,0.01,weatherlink.com 1.10,2013-09-30 22:52:00,
2013-09-30 19:07:00,63.1,59.0,30.00,SSE,167,0.0,1.0,86,0.00,,,0.01,weatherlink.com 1.10,2013-09-30 23:07:00,
2013-09-30 19:22:00,61.5,58.0,30.01,SSE,167,0.0,0.0,89,0.00,,,0.01,weatherlink.com 1.10,2013-09-30 23:22:00,
2013-09-30 19:37:00,61.5,58.0,30.01,SSE,167,0.0,1.0,89,0.00,,,0.01,weatherlink.com 1.10,2013-09-30 23:37:00,
2013-09-30 19:52:00,60.8,58.0,30.01,SSE,167,0.0,1.0,89,0.00,,,0.01,weatherlink.com 1.10,2013-09-30 23:52:00,
2013-09-30 20:07:00,60.1,58.0,30.02,SSE,167,0.0,0.0,91,0.00,,,0.01,weatherlink.com 1.10,2013-10-01 00:07:00,
2013-09-30 20:22:00,59.6,57.0,30.02,SSE,167,0.0,1.0,92,0.00,,,0.01,weatherlink.com 1.10,2013-10-01 00:22:00,
2013-09-30 20:37:00,59.3,57.0,30.03,SSE,167,0.0,0.0,93,0.00,,,0.01,weatherlink.com 1.10,2013-10-01 00:37:00,
2013-09-30 20:52:00,59.4,57.0,30.03,SSE,167,0.0,2.0,92,0.00,,,0.01,weatherlink.com 1.10,2013-10-01 00:52:00,
2013-09-30 21:07:00,59.6,57.0,30.03,SSE,167,0.0,2.0,91,0.00,,,0.01,weatherlink.com 1.10,2013-10-01 01:07:00,
2013-09-30 21:22:00,59.5,57.0,30.04,SSE,167,0.0,1.0,92,0.00,,,0.01,weatherlink.com 1.10,2013-10-01 01:22:00,
2013-09-30 21:37:00,59.1,57.0,30.04,SSE,167,0.0,0.0,92,0.00,,,0.01,weatherlink.com 1.10,2013-10-01 01:37:00,
2013-09-30 21:52:00,59.5,58.0,30.04,SSE,167,1.0,2.0,94,0.00,,,0.01,weatherlink.com 1.10,2013-10-01 01:52:00,
2013-09-30 22:07:00,60.2,58.0,30.04,SSE,167,0.0,2.0,92,0.00,,,0.01,weatherlink.com 1.10,2013-10-01 02:07:00,
2013-09-30 22:22:00,59.8,58.0,30.04,SSE,167,0.0,1.0,93,0.00,,,0.01,weatherlink.com 1.10,2013-10-01 02:22:00,
2013-09-30 22:37:00,60.2,58.0,30.04,SSE,167,3.0,3.0,93,0.00,,,0.01,weatherlink.com 1.10,2013-10-01 02:37:00,
2013-09-30 22:52:00,60.2,58.0,30.04,South,178,3.0,4.0,92,0.00,,,0.01,weatherlink.com 1.10,2013-10-01 02:52:00,
2013-09-30 23:07:00,61.0,58.0,30.04,South,178,2.0,4.0,89,0.00,,,0.01,weatherlink.com 1.10,2013-10-01 03:07:00,
2013-09-30 23:22:00,61.5,58.0,30.04,SW,224,5.0,6.0,87,0.00,,,0.01,weatherlink.com 1.10,2013-10-01 03:22:00,
2013-09-30 23:37:00,61.4,58.0,30.04,SW,219,3.0,5.0,88,0.00,,,0.01,weatherlink.com 1.10,2013-10-01 03:37:00,
2013-09-30 23:52:00,60.9,57.0,30.04,SSW,205,3.0,4.0,88,0.00,,,0.01,weatherlink.com 1.10,2013-10-01 03:52:00,